Tillbaka till svenska Fidonet
English   Information   Debug  
FILM   0/18
FNEWS_PUBLISH   4461
FN_SYSOP   41736
FN_SYSOP_OLD1   71952
FTP_FIDO   0/2
FTSC_PUBLIC   0/13627
FUNNY   0/4886
GENEALOGY.EUR   0/71
GET_INFO   105
GOLDED   0/408
HAM   0/16084
HOLYSMOKE   0/6791
HOT_SITES   0/1
HTMLEDIT   0/71
HUB203   466
HUB_100   264
HUB_400   39
HUMOR   0/29
IC   0/2851
INTERNET   0/424
INTERUSER   0/3
IP_CONNECT   719
JAMNNTPD   0/233
JAMTLAND   0/47
KATTY_KORNER   0/41
LAN   0/16
LINUX-USER   0/19
LINUXHELP   0/1155
LINUX   0/22120
LINUX_BBS   0/957
mail   18.68
mail_fore_ok   249
MENSA   0/341
MODERATOR   0/102
MONTE   0/992
MOSCOW_OKLAHOMA   0/1245
MUFFIN   0/783
MUSIC   0/321
N203_STAT   932
N203_SYSCHAT   313
NET203   321
NET204   69
NET_DEV   0/10
NORD.ADMIN   0/101
NORD.CHAT   0/2572
NORD.FIDONET   189
NORD.HARDWARE   0/28
NORD.KULTUR   0/114
NORD.PROG   0/32
NORD.SOFTWARE   0/88
NORD.TEKNIK   0/58
NORD   0/453
OCCULT_CHAT   0/93
OS2BBS   0/787
OS2DOSBBS   0/580
OS2HW   0/42
OS2INET   0/37
OS2LAN   0/134
OS2PROG   0/36
OS2REXX   0/113
OS2USER-L   207
OS2   0/4794
OSDEBATE   0/18996
PASCAL   0/490
PERL   0/457
PHP   0/45
POINTS   0/405
POLITICS   0/29554
POL_INC   0/14731
PSION   103
R20_ADMIN   1124
R20_AMATORRADIO   0/2
R20_BEST_OF_FIDONET   13
R20_CHAT   0/893
R20_DEPP   0/3
R20_DEV   399
R20_ECHO2   1379
R20_ECHOPRES   0/35
R20_ESTAT   0/719
R20_FIDONETPROG...
...RAM.MYPOINT
  0/2
R20_FIDONETPROGRAM   0/22
R20_FIDONET   0/248
R20_FILEFIND   0/24
R20_FILEFOUND   0/22
R20_HIFI   0/3
R20_INFO2   3268
R20_INTERNET   0/12940
R20_INTRESSE   0/60
R20_INTR_KOM   0/99
R20_KANDIDAT.CHAT   42
R20_KANDIDAT   28
R20_KOM_DEV   112
R20_KONTROLL   0/13318
R20_KORSET   0/18
R20_LOKALTRAFIK   0/24
R20_MODERATOR   0/1852
R20_NC   76
R20_NET200   245
R20_NETWORK.OTH...
...ERNETS
  0/13
R20_OPERATIVSYS...
...TEM.LINUX
  0/44
R20_PROGRAMVAROR   0/1
R20_REC2NEC   534
R20_SFOSM   0/341
R20_SF   0/108
R20_SPRAK.ENGLISH   0/1
R20_SQUISH   107
R20_TEST   2
R20_WORST_OF_FIDONET   12
RAR   0/9
RA_MULTI   106
RA_UTIL   0/162
REGCON.EUR   0/2056
REGCON   0/13
SCIENCE   0/1206
SF   0/239
SHAREWARE_SUPPORT   0/5146
SHAREWRE   0/14
SIMPSONS   0/169
STATS_OLD1   0/2539.065
STATS_OLD2   0/2530
STATS_OLD3   0/2395.095
STATS_OLD4   0/1692.25
SURVIVOR   0/495
SYSOPS_CORNER   0/3
SYSOP   0/84
TAGLINES   0/112
TEAMOS2   0/4530
TECH   0/2617
TEST.444   0/105
TRAPDOOR   0/19
TREK   0/755
TUB   0/290
UFO   0/40
UNIX   0/1316
USA_EURLINK   0/102
USR_MODEMS   0/1
VATICAN   0/2740
VIETNAM_VETS   0/14
VIRUS   0/378
VIRUS_INFO   0/201
VISUAL_BASIC   0/473
WHITEHOUSE   0/5187
WIN2000   0/101
WIN32   0/30
WIN95   0/4290
WIN95_OLD1   0/70272
WINDOWS   0/1517
WWB_SYSOP   0/419
WWB_TECH   0/810
ZCC-PUBLIC   0/1
ZEC   4

 
4DOS   0/134
ABORTION   0/7
ALASKA_CHAT   0/506
ALLFIX_FILE   0/1313
ALLFIX_FILE_OLD1   0/7997
ALT_DOS   0/152
AMATEUR_RADIO   0/1039
AMIGASALE   0/14
AMIGA   0/331
AMIGA_INT   0/1
AMIGA_PROG   0/20
AMIGA_SYSOP   0/26
ANIME   0/15
ARGUS   0/924
ASCII_ART   0/340
ASIAN_LINK   0/651
ASTRONOMY   0/417
AUDIO   0/92
AUTOMOBILE_RACING   0/105
BABYLON5   0/17862
BAG   135
BATPOWER   0/361
BBBS.ENGLISH   0/382
BBSLAW   0/109
BBS_ADS   0/5290
BBS_INTERNET   0/507
BIBLE   0/3563
BINKD   0/1119
BINKLEY   0/215
BLUEWAVE   0/2173
CABLE_MODEMS   0/25
CBM   0/46
CDRECORD   0/66
CDROM   0/20
CLASSIC_COMPUTER   0/378
COMICS   0/15
CONSPRCY   0/899
COOKING   33710
COOKING_OLD1   0/24719
COOKING_OLD2   0/40862
COOKING_OLD3   0/37489
COOKING_OLD4   0/35496
COOKING_OLD5   9370
C_ECHO   0/189
C_PLUSPLUS   0/31
DIRTY_DOZEN   0/201
DOORGAMES   0/2065
DOS_INTERNET   0/196
duplikat   6002
ECHOLIST   0/18295
EC_SUPPORT   0/318
ELECTRONICS   0/359
ELEKTRONIK.GER   1534
ENET.LINGUISTIC   0/13
ENET.POLITICS   0/4
ENET.SOFT   0/11701
ENET.SYSOP   33963
ENET.TALKS   0/32
ENGLISH_TUTOR   0/2000
EVOLUTION   0/1335
FDECHO   0/217
FDN_ANNOUNCE   0/7068
FIDONEWS   24191
FIDONEWS_OLD1   0/49742
FIDONEWS_OLD2   0/35949
FIDONEWS_OLD3   0/30874
FIDONEWS_OLD4   0/37224
FIDO_SYSOP   12852
FIDO_UTIL   0/180
FILEFIND   0/209
FILEGATE   0/212
Möte HAM, 16084 texter
 lista första sista föregående nästa
Text 3211, 829 rader
Skriven 2009-09-11 00:30:19 av Amsat List (1:323/120.0)
Ärende: [keps]  orb09253.amsa
=============================
[keps]  orb09253.amsa

Return-Path: <keps-bounces@amsat.org>
X-Rcpt: craig.healy@chowda.com
X-UIDL: 1252641947.4426

SB KEPS @ AMSAT  $ORB09253.O
Orbital Elements  09253.OSCAR

HR AMSAT ORBITAL ELEMENTS FOR OSCAR SATELLITES
FROM WA5QGD FORT WORTH,TX September 10, 2009
Send Subscribe/unsubscribe to KEPS at 
http://www.amsat.org/mailman/listinfo/keps
BID: ORB09253.O
TO ALL RADIO AMATEURS BT

Satellite: AO-07
Catalog number: 07530
Epoch time:      09251.48645756
Element set:     575
Inclination:      101.4231 deg
RA of node:       273.0962 deg
Eccentricity:    0.0012045
Arg of perigee:   104.5946 deg
Mean anomaly:     255.6469 deg
Mean motion:   12.53576440 rev/day
Decay rate:       -2.7e-07 rev/day^2
Epoch rev:           59315
Checksum:              301

Satellite: FO-29
Catalog number: 24278
Epoch time:      09252.75275727
Element set:    0142
Inclination:      098.5392 deg
RA of node:       115.3747 deg
Eccentricity:    0.0351157
Arg of perigee:   131.1421 deg
Mean anomaly:     232.0585 deg
Mean motion:   13.52945091 rev/day
Decay rate:       -2.8e-07 rev/day^2
Epoch rev:           64518
Checksum:              310

Satellite: SO-33
Catalog number: 25509
Epoch time:      09252.56038837
Element set:     538
Inclination:      031.4344 deg
RA of node:       295.3926 deg
Eccentricity:    0.0354376
Arg of perigee:   356.1155 deg
Mean anomaly:     003.6750 deg
Mean motion:   14.28264019 rev/day
Decay rate:       2.36e-06 rev/day^2
Epoch rev:           56790
Checksum:              316

Satellite: RS-22
Catalog number: 27939
Epoch time:      09252.64559470
Element set:    0888
Inclination:      097.9292 deg
RA of node:       124.3832 deg
Eccentricity:    0.0012616
Arg of perigee:   224.3296 deg
Mean anomaly:     135.6900 deg
Mean motion:   14.63339188 rev/day
Decay rate:        5.0e-07 rev/day^2
Epoch rev:           31792
Checksum:              329

Satellite: VO-52
Catalog number: 28650
Epoch time:      09253.88735007
Element set:     316
Inclination:      097.7337 deg
RA of node:       312.5994 deg
Eccentricity:    0.0028300
Arg of perigee:   109.1414 deg
Mean anomaly:     251.2834 deg
Mean motion:   14.81618212 rev/day
Decay rate:       2.23e-06 rev/day^2
Epoch rev:           23533
Checksum:              289

/EX
SB KEPS @ AMSAT  $ORB09253.D
Orbital Elements  09253.MICROS

HR AMSAT ORBITAL ELEMENTS FOR THE MICROSATS
FROM WA5QGD FORT WORTH,TX September 10, 2009
Send Subscribe/unsubscribe to KEPS at 
http://www.amsat.org/mailman/listinfo/keps
BID: ORB09253.D
TO ALL RADIO AMATEURS BT

Satellite: AO-16
Catalog number: 20439
Epoch time:      09252.89980339
Element set:    0700
Inclination:      098.2886 deg
RA of node:       217.4883 deg
Eccentricity:    0.0010094
Arg of perigee:   281.5355 deg
Mean anomaly:     078.4700 deg
Mean motion:   14.31832546 rev/day
Decay rate:       -4.0e-08 rev/day^2
Epoch rev:           02527
Checksum:              312

Satellite: LO-19
Catalog number: 20442
Epoch time:      09252.87305814
Element set:    0614
Inclination:      098.2524 deg
RA of node:       224.3974 deg
Eccentricity:    0.0010909
Arg of perigee:   275.7197 deg
Mean anomaly:     084.2739 deg
Mean motion:   14.32067370 rev/day
Decay rate:        2.0e-07 rev/day^2
Epoch rev:           02543
Checksum:              298

Satellite: AO-27
Catalog number: 22825
Epoch time:      09251.03260794
Element set:     335
Inclination:      098.4448 deg
RA of node:       201.8770 deg
Eccentricity:    0.0008785
Arg of perigee:   026.4323 deg
Mean anomaly:     333.7309 deg
Mean motion:   14.29272543 rev/day
Decay rate:       -2.0e-08 rev/day^2
Epoch rev:           83174
Checksum:              302

Satellite: IO-26
Catalog number: 22826
Epoch time:      09251.42816736
Element set:      64
Inclination:      098.4369 deg
RA of node:       202.9737 deg
Eccentricity:    0.0009443
Arg of perigee:   020.1599 deg
Mean anomaly:     339.9954 deg
Mean motion:   14.29525251 rev/day
Decay rate:       -6.0e-08 rev/day^2
Epoch rev:           83190
Checksum:              325

Satellite: GO-32
Catalog number: 25397
Epoch time:      09252.72134600
Element set:    0987
Inclination:      098.3246 deg
RA of node:       270.5276 deg
Eccentricity:    0.0001609
Arg of perigee:   043.3204 deg
Mean anomaly:     316.8097 deg
Mean motion:   14.23163554 rev/day
Decay rate:        4.4e-07 rev/day^2
Epoch rev:           58015
Checksum:              295

Satellite: NO-44
Catalog number: 26931
Epoch time:      09253.84832389
Element set:     261
Inclination:      067.0507 deg
RA of node:       203.6539 deg
Eccentricity:    0.0006858
Arg of perigee:   275.5569 deg
Mean anomaly:     084.4742 deg
Mean motion:   14.29566115 rev/day
Decay rate:       -2.7e-07 rev/day^2
Epoch rev:           41482
Checksum:              330

Satellite: SO-50
Catalog number: 27607
Epoch time:      09252.80293657
Element set:    0980
Inclination:      064.5580 deg
RA of node:       128.1015 deg
Eccentricity:    0.0057624
Arg of perigee:   184.6962 deg
Mean anomaly:     175.3591 deg
Mean motion:   14.71457230 rev/day
Decay rate:        8.0e-08 rev/day^2
Epoch rev:           36112
Checksum:              306

Satellite: CO-55
Catalog number: 27844
Epoch time:      09251.02922352
Element set:     662
Inclination:      098.7141 deg
RA of node:       259.0319 deg
Eccentricity:    0.0009023
Arg of perigee:   267.0079 deg
Mean anomaly:     093.0057 deg
Mean motion:   14.20654530 rev/day
Decay rate:        3.9e-07 rev/day^2
Epoch rev:           32102
Checksum:              280

